Time,TemperatureF,DewpointF,PressureIn,WindDirection,WindDirectionDegrees,WindSpeedMPH,WindSpeedGustMPH,Humidity,HourlyPrecipIn,Conditions,Clouds,dailyrainin,SoftwareType,DateUTC
2013-06-04 00:05:00,65.9,58.0,29.92,North,5,2.0,6.0,75,0.00,,,0.00,weatherlink.com 1.10,2013-06-04 04:05:00,
2013-06-04 00:20:00,65.3,58.0,29.93,NNW,333,0.0,0.0,76,0.00,,,0.00,weatherlink.com 1.10,2013-06-04 04:20:00,
2013-06-04 00:35:00,64.5,58.0,29.94,NW,308,0.0,1.0,78,0.00,,,0.00,weatherlink.com 1.10,2013-06-04 04:35:00,
2013-06-04 00:52:00,64.0,58.0,29.94,NW,308,0.0,0.0,81,0.00,,,0.00,weatherlink.com 1.10,2013-06-04 04:52:00,
2013-06-04 01:05:00,63.8,58.0,29.95,NW,308,0.0,0.0,81,0.00,,,0.00,weatherlink.com 1.10,2013-06-04 05:05:00,
2013-06-04 01:20:00,63.3,57.0,29.95,NW,308,0.0,0.0,80,0.00,,,0.00,weatherlink.com 1.10,2013-06-04 05:20:00,
2013-06-04 01:35:00,62.4,58.0,29.95,NW,308,0.0,0.0,84,0.00,,,0.00,weatherlink.com 1.10,2013-06-04 05:35:00,
2013-06-04 01:52:00,61.8,57.0,29.95,NW,308,0.0,0.0,83,0.00,,,0.00,weatherlink.com 1.10,2013-06-04 05:52:00,
2013-06-04 02:05:00,61.8,54.0,29.96,NNW,327,0.0,4.0,76,0.00,,,0.00,weatherlink.com 1.10,2013-06-04 06:05:00,
2013-06-04 02:20:00,61.0,53.0,29.96,WNW,303,0.0,2.0,75,0.00,,,0.00,weatherlink.com 1.10,2013-06-04 06:20:00,
2013-06-04 02:35:00,60.8,51.0,29.96,NW,304,0.0,5.0,70,0.00,,,0.00,weatherlink.com 1.10,2013-06-04 06:35:00,
2013-06-04 02:52:00,60.9,50.0,29.96,WNW,297,4.0,7.0,68,0.00,,,0.00,weatherlink.com 1.10,2013-06-04 06:52:00,
2013-06-04 03:05:00,60.9,50.0,29.96,NNW,346,1.0,6.0,67,0.00,,,0.00,weatherlink.com 1.10,2013-06-04 07:05:00,
2013-06-04 03:20:00,59.9,50.0,29.96,NW,318,0.0,4.0,69,0.00,,,0.00,weatherlink.com 1.10,2013-06-04 07:20:00,
2013-06-04 03:35:00,58.9,49.0,29.97,NW,321,0.0,6.0,69,0.00,,,0.00,weatherlink.com 1.10,2013-06-04 07:35:00,
2013-06-04 03:52:00,58.6,48.0,29.97,NW,322,4.0,5.0,69,0.00,,,0.00,weatherlink.com 1.10,2013-06-04 07:52:00,
2013-06-04 04:05:00,57.8,48.0,29.98,NNW,340,0.0,3.0,70,0.00,,,0.00,weatherlink.com 1.10,2013-06-04 08:05:00,
2013-06-04 04:20:00,56.9,46.0,29.98,NW,318,2.0,5.0,68,0.00,,,0.00,weatherlink.com 1.10,2013-06-04 08:20:00,
2013-06-04 04:35:00,57.2,44.0,29.99,NW,318,3.0,6.0,62,0.00,,,0.00,weatherlink.com 1.10,2013-06-04 08:35:00,
2013-06-04 04:52:00,57.1,44.0,29.99,NNW,342,2.0,5.0,62,0.00,,,0.00,weatherlink.com 1.10,2013-06-04 08:52:00,
2013-06-04 05:05:00,56.5,44.0,30.00,NW,314,0.0,3.0,63,0.00,,,0.00,weatherlink.com 1.10,2013-06-04 09:05:00,
2013-06-04 05:21:00,55.5,43.0,30.00,WNW,298,3.0,5.0,64,0.00,,,0.00,weatherlink.com 1.10,2013-06-04 09:21:00,
2013-06-04 05:36:00,54.8,44.0,30.02,NW,319,2.0,4.0,67,0.00,,,0.00,weatherlink.com 1.10,2013-06-04 09:36:00,
2013-06-04 05:53:00,54.3,44.0,30.02,NW,309,2.0,4.0,68,0.00,,,0.00,weatherlink.com 1.10,2013-06-04 09:53:00,
2013-06-04 06:06:00,54.1,44.0,30.03,West,270,0.0,3.0,68,0.00,,,0.00,weatherlink.com 1.10,2013-06-04 10:06:00,
2013-06-04 06:21:00,54.5,44.0,30.04,WNW,294,1.0,4.0,68,0.00,,,0.00,weatherlink.com 1.10,2013-06-04 10:21:00,
2013-06-04 06:36:00,55.2,44.0,30.04,WNW,287,0.0,4.0,67,0.00,,,0.00,weatherlink.com 1.10,2013-06-04 10:36:00,
2013-06-04 06:53:00,55.7,44.0,30.04,NNW,329,4.0,6.0,65,0.00,,,0.00,weatherlink.com 1.10,2013-06-04 10:53:00,
2013-06-04 07:06:00,56.4,45.0,30.05,WNW,298,4.0,5.0,66,0.00,,,0.00,weatherlink.com 1.10,2013-06-04 11:06:00,
2013-06-04 07:36:00,57.6,45.0,30.07,NNW,336,2.0,8.0,64,0.00,,,0.00,weatherlink.com 1.10,2013-06-04 11:36:00,
2013-06-04 07:53:00,57.8,44.0,30.06,NNW,344,5.0,11.0,61,0.00,,,0.00,weatherlink.com 1.10,2013-06-04 11:53:00,
2013-06-04 08:21:00,58.8,44.0,30.08,NW,309,4.0,8.0,59,0.00,,,0.00,weatherlink.com 1.10,2013-06-04 12:21:00,
2013-06-04 08:36:00,59.3,44.0,30.08,NNW,338,4.0,9.0,58,0.00,,,0.00,weatherlink.com 1.10,2013-06-04 12:36:00,
2013-06-04 08:53:00,60.2,45.0,30.08,WNW,297,4.0,8.0,58,0.00,,,0.00,weatherlink.com 1.10,2013-06-04 12:53:00,
2013-06-04 09:21:00,61.1,44.0,30.09,NNE,19,3.0,13.0,54,0.00,,,0.00,weatherlink.com 1.10,2013-06-04 13:21:00,
2013-06-04 09:36:00,61.0,44.0,30.09,WNW,300,8.0,13.0,53,0.00,,,0.00,weatherlink.com 1.10,2013-06-04 13:36:00,
2013-06-04 09:53:00,61.6,44.0,30.09,NW,319,8.0,16.0,52,0.00,,,0.00,weatherlink.com 1.10,2013-06-04 13:53:00,
2013-06-04 10:06:00,62.3,44.0,30.09,NW,325,8.0,13.0,51,0.00,,,0.00,weatherlink.com 1.10,2013-06-04 14:06:00,
2013-06-04 10:21:00,62.9,43.0,30.09,NNW,336,9.0,15.0,49,0.00,,,0.00,weatherlink.com 1.10,2013-06-04 14:21:00,
2013-06-04 10:36:00,63.7,44.0,30.09,NW,313,4.0,15.0,49,0.00,,,0.00,weatherlink.com 1.10,2013-06-04 14:36:00,
2013-06-04 10:53:00,63.6,44.0,30.10,WNW,302,6.0,14.0,50,0.00,,,0.00,weatherlink.com 1.10,2013-06-04 14:53:00,
2013-06-04 11:06:00,64.0,45.0,30.10,North,355,3.0,12.0,51,0.00,,,0.00,weatherlink.com 1.10,2013-06-04 15:06:00,
2013-06-04 11:21:00,64.5,45.0,30.10,WNW,303,6.0,12.0,49,0.00,,,0.00,weatherlink.com 1.10,2013-06-04 15:21:00,
2013-06-04 11:36:00,64.5,44.0,30.09,NNW,331,7.0,9.0,48,0.00,,,0.00,weatherlink.com 1.10,2013-06-04 15:36:00,
2013-06-04 11:53:00,65.7,45.0,30.10,NW,304,7.0,10.0,48,0.00,,,0.00,weatherlink.com 1.10,2013-06-04 15:53:00,
2013-06-04 12:06:00,66.4,45.0,30.09,WNW,285,4.0,10.0,46,0.00,,,0.00,weatherlink.com 1.10,2013-06-04 16:06:00,
2013-06-04 12:21:00,66.6,46.0,30.09,NNW,344,8.0,11.0,48,0.00,,,0.00,weatherlink.com 1.10,2013-06-04 16:21:00,
2013-06-04 12:36:00,67.3,44.0,30.09,NNW,344,4.0,11.0,43,0.00,,,0.00,weatherlink.com 1.10,2013-06-04 16:36:00,
2013-06-04 12:53:00,68.0,46.0,30.08,WNW,301,3.0,10.0,45,0.00,,,0.00,weatherlink.com 1.10,2013-06-04 16:53:00,
2013-06-04 13:06:00,68.2,45.0,30.08,North,355,10.0,13.0,43,0.00,,,0.00,weatherlink.com 1.10,2013-06-04 17:06:00,
2013-06-04 13:21:00,68.1,47.0,30.08,West,269,4.0,11.0,47,0.00,,,0.00,weatherlink.com 1.10,2013-06-04 17:21:00,
2013-06-04 13:36:00,68.9,47.0,30.08,NW,310,4.0,13.0,45,0.00,,,0.00,weatherlink.com 1.10,2013-06-04 17:36:00,
2013-06-04 13:53:00,69.4,46.0,30.08,NNW,344,2.0,9.0,43,0.00,,,0.00,weatherlink.com 1.10,2013-06-04 17:53:00,
2013-06-04 14:06:00,69.3,48.0,30.07,NNW,336,10.0,11.0,47,0.00,,,0.00,weatherlink.com 1.10,2013-06-04 18:06:00,
2013-06-04 14:21:00,70.1,48.0,30.07,NNE,12,8.0,8.0,45,0.00,,,0.00,weatherlink.com 1.10,2013-06-04 18:21:00,
2013-06-04 14:36:00,70.6,47.0,30.06,NW,325,4.0,10.0,43,0.00,,,0.00,weatherlink.com 1.10,2013-06-04 18:36:00,
2013-06-04 14:53:00,71.0,45.0,30.06,NNW,346,4.0,14.0,39,0.00,,,0.00,weatherlink.com 1.10,2013-06-04 18:53:00,
2013-06-04 15:06:00,70.9,45.0,30.06,NNE,24,7.0,14.0,39,0.00,,,0.00,weatherlink.com 1.10,2013-06-04 19:06:00,
2013-06-04 15:21:00,71.7,46.0,30.06,NNW,336,6.0,11.0,40,0.00,,,0.00,weatherlink.com 1.10,2013-06-04 19:21:00,
2013-06-04 15:36:00,71.5,45.0,30.06,WNW,294,6.0,8.0,39,0.00,,,0.00,weatherlink.com 1.10,2013-06-04 19:36:00,
2013-06-04 15:54:00,71.9,46.0,30.06,North,355,7.0,12.0,39,0.00,,,0.00,weatherlink.com 1.10,2013-06-04 19:54:00,
2013-06-04 16:07:00,72.7,46.0,30.05,NNW,330,3.0,11.0,38,0.00,,,0.00,weatherlink.com 1.10,2013-06-04 20:07:00,
2013-06-04 16:22:00,72.5,46.0,30.05,West,259,3.0,13.0,39,0.00,,,0.00,weatherlink.com 1.10,2013-06-04 20:22:00,
2013-06-04 16:37:00,72.2,46.0,30.05,NW,321,4.0,9.0,40,0.00,,,0.00,weatherlink.com 1.10,2013-06-04 20:37:00,
2013-06-04 16:54:00,72.3,44.0,30.05,North,360,4.0,10.0,36,0.00,,,0.00,weatherlink.com 1.10,2013-06-04 20:54:00,
2013-06-04 17:07:00,72.7,46.0,30.05,WSW,243,2.0,8.0,38,0.00,,,0.00,weatherlink.com 1.10,2013-06-04 21:07:00,
2013-06-04 17:22:00,72.8,44.0,30.05,NW,325,4.0,9.0,36,0.00,,,0.00,weatherlink.com 1.10,2013-06-04 21:22:00,
2013-06-04 17:37:00,72.9,47.0,30.05,NW,304,7.0,8.0,40,0.00,,,0.00,weatherlink.com 1.10,2013-06-04 21:37:00,
2013-06-04 17:54:00,73.0,44.0,30.05,WNW,298,3.0,8.0,36,0.00,,,0.00,weatherlink.com 1.10,2013-06-04 21:54:00,
2013-06-04 18:07:00,72.9,44.0,30.05,WNW,294,2.0,9.0,36,0.00,,,0.00,weatherlink.com 1.10,2013-06-04 22:07:00,
2013-06-04 18:22:00,72.9,46.0,30.06,NW,315,7.0,8.0,39,0.00,,,0.00,weatherlink.com 1.10,2013-06-04 22:22:00,
2013-06-04 18:37:00,72.9,46.0,30.06,WNW,300,1.0,7.0,38,0.00,,,0.00,weatherlink.com 1.10,2013-06-04 22:37:00,
2013-06-04 18:54:00,72.9,46.0,30.06,West,261,0.0,5.0,38,0.00,,,0.00,weatherlink.com 1.10,2013-06-04 22:54:00,
2013-06-04 19:07:00,72.7,46.0,30.07,NW,307,0.0,6.0,39,0.00,,,0.00,weatherlink.com 1.10,2013-06-04 23:07:00,
2013-06-04 19:22:00,72.4,46.0,30.07,NW,318,2.0,7.0,39,0.00,,,0.00,weatherlink.com 1.10,2013-06-04 23:22:00,
2013-06-04 19:37:00,71.4,44.0,30.07,West,274,1.0,7.0,38,0.00,,,0.00,weatherlink.com 1.10,2013-06-04 23:37:00,
2013-06-04 19:54:00,70.8,45.0,30.08,West,271,1.0,6.0,40,0.00,,,0.00,weatherlink.com 1.10,2013-06-04 23:54:00,
2013-06-04 20:07:00,70.3,45.0,30.08,NW,311,0.0,4.0,41,0.00,,,0.00,weatherlink.com 1.10,2013-06-05 00:07:00,
2013-06-04 20:22:00,69.6,46.0,30.09,NW,311,1.0,2.0,43,0.00,,,0.00,weatherlink.com 1.10,2013-06-05 00:22:00,
2013-06-04 20:37:00,68.1,46.0,30.09,NW,311,0.0,0.0,46,0.00,,,0.00,weatherlink.com 1.10,2013-06-05 00:37:00,
2013-06-04 20:54:00,66.7,46.0,30.09,NW,311,0.0,0.0,48,0.00,,,0.00,weatherlink.com 1.10,2013-06-05 00:54:00,
2013-06-04 21:07:00,64.7,49.0,30.10,NW,311,0.0,0.0,58,0.00,,,0.00,weatherlink.com 1.10,2013-06-05 01:07:00,
2013-06-04 21:22:00,63.5,50.0,30.10,NW,311,0.0,0.0,61,0.00,,,0.00,weatherlink.com 1.10,2013-06-05 01:22:00,
2013-06-04 21:37:00,62.5,49.0,30.10,NW,311,0.0,0.0,61,0.00,,,0.00,weatherlink.com 1.10,2013-06-05 01:37:00,
2013-06-04 21:54:00,62.1,50.0,30.11,NW,311,0.0,0.0,64,0.00,,,0.00,weatherlink.com 1.10,2013-06-05 01:54:00,
2013-06-04 22:07:00,61.0,50.0,30.11,NW,311,0.0,0.0,67,0.00,,,0.00,weatherlink.com 1.10,2013-06-05 02:07:00,
2013-06-04 22:22:00,59.5,51.0,30.12,WSW,242,0.0,0.0,73,0.00,,,0.00,weatherlink.com 1.10,2013-06-05 02:22:00,
2013-06-04 22:37:00,59.2,51.0,30.12,WSW,242,0.0,0.0,73,0.00,,,0.00,weatherlink.com 1.10,2013-06-05 02:37:00,
2013-06-04 22:54:00,58.7,52.0,30.12,WSW,242,0.0,0.0,77,0.00,,,0.00,weatherlink.com 1.10,2013-06-05 02:54:00,
2013-06-04 23:07:00,57.7,51.0,30.11,WSW,242,0.0,0.0,79,0.00,,,0.00,weatherlink.com 1.10,2013-06-05 03:07:00,
2013-06-04 23:22:00,57.7,50.0,30.11,WSW,242,0.0,0.0,76,0.00,,,0.00,weatherlink.com 1.10,2013-06-05 03:22:00,
2013-06-04 23:37:00,57.4,51.0,30.12,WSW,258,0.0,0.0,80,0.00,,,0.00,weatherlink.com 1.10,2013-06-05 03:37:00,
2013-06-04 23:54:00,56.7,51.0,30.12,WSW,258,0.0,0.0,82,0.00,,,0.00,weatherlink.com 1.10,2013-06-05 03:54:00,